Regional Weather Roundup
Issued by NWS Goodland, KS

Home | Current Version | Previous Version | Text Only | Print | Product List | Glossary Off
Versions: 1 2 3 4 5 6 7 8 9 10 11 12 13 14 15 16 17 18 19 20 21 22 23 24 25 26 27 28 29 30 31 32 33 34 35 36 37 38 39 40 41 42 43 44 45 46 47 48 49 50

000
ASUS43 KGLD 231408
RWRGLD

GOODLAND FORECAST AREA HOURLY WEATHER ROUNDUP
NATIONAL WEATHER SERVICE GOODLAND KS
800 AM MDT TUE AUG 23 2016

...OFFICIAL OBSERVATIONS...

CITY           SKY/WX    TMP DP  RH WIND       PRES   REMARKS
GOODLAND KS    SUNNY     65  53  65 W9        29.89R
HILL CITY KS   SUNNY     75  66  73 S12G24    29.85F
IMPERIAL NEB   SUNNY     67  62  84 S5        29.86S
MCCOOK NEB     SUNNY     69  65  86 SE8       29.83S
AKRON CO       SUNNY     65  43  44 W13       29.97R
BURLINGTON CO  SUNNY     68  45  43 W12       29.93R
LIMON CO       SUNNY     68  39  34 W8        30.03R
$$

...UNOFFICIAL OBSERVATIONS...

CITY           SKY/WX    TMP DP  RH WIND       PRES   REMARKS
COLBY KS       SUNNY     72  63  73 SW15      29.86S
LENORA KS        N/A     74  32  21 MISG        N/A
NORTON KS      SUNNY     73  61  64 SE15      29.82F
SHARON SPRINGS   N/A     66  58  76 S8          N/A
TRENTON NEB      N/A     71  32  23 MISG        N/A
KIT CARSON CO    N/A     63  48  57 MISG        N/A
YUMA CO          N/A     65  50  58 NW9G16      N/A
$$




USA.gov is the U.S. government's official web portal to all federal, state and local government web resources and services.